Theta_e
309 308 306 307 307 307 305 304 304 308 312 309 310 313 319 331 330 331 332 334 335 337 341 344 345 347 348 350 352 353 354 357 356 352 351 353 350 352 353 354 354 356 357 357
308 305 309 308 307 306 305 304 305 308 314 314 319 320 324 328 331 331 331 332 334 336 338 340 342 345 346 348 350 352 354 355 355 355 354 353 352 352 353 354 353 352 354 357
305 306 308 307 306 305 306 304 304 304 308 318 317 314 316 324 331 333 333 333 334 334 335 338 339 342 344 347 349 351 354 356 357 357 354 352 352 352 349 349 349 349 353 354
306 309 306 305 304 306 304 307 306 304 309 305 315 302 314 317 322 329 330 332 333 333 336 337 339 341 342 346 350 353 355 356 356 355 352 352 352 345 348 350 351 352 358 359
305 306 305 305 307 308 306 312 312 312 311 308 307 307 310 316 317 320 327 331 332 333 336 336 338 342 345 345 348 351 354 355 356 354 355 352 350 349 351 349 352 356 360 359
308 310 309 310 309 309 312 311 308 308 308 300 306 307 306 312 316 319 323 326 332 334 335 338 340 342 344 347 348 348 352 352 356 355 355 354 352 350 347 348 356 359 357 357
307 307 309 310 307 308 308 306 299 298 299 298 306 305 309 316 319 321 322 326 329 335 335 337 338 340 344 346 347 345 349 352 354 354 354 353 353 353 351 350 349 352 351 354
303 301 306 308 309 307 307 305 300 293 296 298 304 302 308 318 321 323 328 325 328 333 335 335 339 342 342 345 347 349 349 352 353 353 354 354 355 350 349 350 348 349 351 352
303 302 307 309 309 309 303 302 305 300 301 300 303 308 314 317 321 323 327 329 327 331 332 334 339 342 342 345 345 349 350 352 352 352 354 354 354 353 350 352 354 351 357 356
308 303 308 308 308 306 306 308 302 303 296 295 301 303 307 315 319 323 326 329 331 331 333 332 336 341 344 344 344 347 351 350 351 352 354 353 353 354 354 353 353 354 356 358
308 306 307 309 306 305 304 304 302 304 302 298 297 302 314 317 321 321 325 329 330 331 332 334 335 341 344 345 346 345 346 348 350 351 352 353 353 354 353 352 353 355 357 358
308 306 303 305 309 309 306 304 306 301 300 302 304 305 315 320 323 324 326 328 329 334 332 336 338 341 342 343 344 346 348 347 349 351 352 352 353 354 352 352 353 355 356 357
308 305 302 304 308 309 309 309 308 308 308 305 302 305 317 320 321 323 322 325 329 334 334 336 339 341 343 344 347 347 348 348 349 350 350 351 352 352 352 352 353 354 356 356
316 305 305 302 305 306 307 308 308 309 305 305 306 308 314 317 318 319 321 325 326 330 334 337 339 342 344 346 348 349 350 350 352 351 350 351 352 352 352 354 355 355 357 356
312 307 307 308 308 305 306 307 308 308 309 305 307 307 314 316 316 320 324 325 326 328 330 334 339 341 344 346 348 349 351 352 353 352 352 352 354 355 356 355 356 356 356 356
310 307 308 307 308 307 306 309 308 309 308 309 309 310 316 320 323 323 324 325 326 328 329 331 334 341 342 344 347 349 350 352 354 352 352 355 355 355 355 356 356 356 356 357
306 306 306 302 306 307 304 308 309 309 312 311 308 314 320 321 321 321 323 324 325 327 329 331 333 338 342 345 347 349 351 354 353 353 354 355 355 354 355 356 356 356 356 357
306 306 307 301 304 295 308 317 315 310 314 316 317 319 321 321 323 323 324 324 325 327 328 331 333 335 339 345 346 350 352 354 354 354 355 355 355 355 356 356 356 358 358 358
306 305 301 298 299 302 305 311 312 311 311 319 318 319 321 321 324 321 324 324 326 328 330 333 335 336 339 342 348 348 349 351 352 353 354 355 356 355 356 355 356 358 358 358
304 305 303 300 296 293 306 312 316 316 306 319 320 319 318 320 317 317 322 324 325 328 331 331 334 335 337 340 346 348 348 349 350 352 354 356 357 356 355 357 358 359 358 358
304 304 300 300 298 302 311 316 318 305 308 321 323 321 319 316 317 322 325 324 325 328 330 334 335 335 336 340 343 347 349 348 351 353 355 355 355 355 356 357 357 356 354 352
303 302 304 303 300 298 315 315 309 315 320 321 321 321 320 320 320 321 322 321 323 324 328 332 336 336 337 339 339 341 345 351 354 354 353 354 355 353 353 355 354 353 350 344
302 305 304 305 306 312 316 319 321 320 316 317 320 320 318 317 317 318 319 320 321 323 326 329 335 336 338 340 341 339 343 346 352 354 354 355 355 355 354 353 348 343 342 338
307 307 305 305 308 313 318 318 318 318 316 318 320 320 318 316 316 317 318 319 320 322 323 328 333 335 337 342 341 341 342 347 352 355 353 347 339 335 334 334 333 335 334 334
307 308 306 306 309 310 314 316 317 316 316 317 318 318 316 316 316 317 318 319 320 321 324 326 330 333 335 340 342 342 345 348 348 350 345 340 332 328 324 323 320 316 321 319
308 306 303 301 310 310 312 314 316 315 315 317 317 317 318 317 317 318 318 320 321 321 323 324 328 331 333 335 338 342 345 343 343 345 340 334 329 328 327 325 322 310 308 304
Wind_Speed
2 5 8 5 3 3 6 7 10 20 10 7 9 18 17 12 15 15 16 17 18 20 17 15 16 16 15 15 15 16 14 13 9 7 7 6 7 6 6 6 6 6 6 6
4 9 6 3 3 6 7 9 12 13 4 5 5 17 17 11 18 21 20 18 19 18 16 15 16 17 17 17 17 15 15 13 12 8 6 4 7 6 6 5 6 7 7 7
4 1 5 1 8 8 7 7 6 8 10 0 9 10 6 4 8 12 16 15 16 19 19 17 16 18 17 18 17 16 16 15 12 10 7 4 5 3 5 6 5 7 8 7
5 2 6 6 6 5 7 8 10 9 6 6 5 8 4 4 5 11 13 16 18 16 18 18 15 17 18 17 14 14 15 14 12 12 10 11 7 7 7 7 6 5 5 7
1 4 6 7 7 8 4 1 3 2 3 3 2 5 3 5 5 3 9 18 19 17 16 18 19 18 16 11 14 14 13 13 12 13 13 10 8 6 5 5 6 5 5 6
10 1 5 8 2 9 3 4 1 1 2 5 1 4 3 5 8 9 10 7 11 18 18 16 13 12 13 13 14 12 14 13 14 14 13 13 11 8 6 6 4 4 5 4
5 4 3 4 5 3 5 5 4 3 2 3 1 4 6 3 8 5 12 10 4 12 16 13 14 15 14 15 15 13 14 14 14 15 14 13 11 10 9 9 7 6 5 5
5 3 6 6 6 5 5 5 4 3 3 6 3 5 5 3 8 5 6 3 2 10 12 14 15 14 13 12 13 12 12 12 14 15 14 12 11 8 8 8 6 6 5 5
5 6 2 5 2 3 5 5 2 3 1 4 3 4 2 2 3 7 7 6 2 9 12 14 16 15 14 16 13 16 14 13 14 15 13 13 12 11 9 9 6 5 5 4
3 7 1 2 4 4 5 7 4 2 3 4 2 5 6 7 9 8 10 11 9 4 8 13 15 17 16 17 10 9 13 14 12 14 13 12 13 13 11 9 9 8 7 5
3 6 2 6 3 2 5 4 3 3 3 3 4 4 3 3 5 7 9 11 11 8 6 9 11 13 16 15 11 10 10 12 12 13 12 12 12 13 12 10 10 9 8 7
2 3 5 3 1 4 3 3 6 4 5 2 3 3 1 3 4 4 8 9 9 8 4 5 10 14 14 12 12 12 12 11 12 12 12 13 12 12 12 11 11 10 9 9
3 4 5 4 5 4 5 3 2 6 4 6 3 2 3 4 5 6 9 10 7 6 0 5 8 11 12 13 12 12 11 11 10 11 12 11 12 12 13 12 12 11 10 9
6 2 6 9 4 4 4 5 5 5 5 5 7 6 10 9 11 12 12 11 10 5 2 4 6 9 12 12 12 12 12 11 10 10 11 11 12 13 13 12 12 12 11 10
2 5 3 6 8 6 9 8 9 9 4 7 5 6 9 10 12 12 10 12 11 6 7 2 5 7 8 11 11 11 10 10 10 10 11 12 10 11 11 11 12 12 12 11
3 5 2 8 5 2 6 9 8 10 6 8 6 10 1 9 12 15 14 14 12 12 10 11 2 5 7 8 9 10 11 10 10 11 11 9 10 11 11 11 11 10 11 10
5 5 4 10 2 7 11 9 9 5 6 6 8 2 7 8 13 13 14 14 13 11 11 9 6 5 3 7 9 9 8 9 11 11 11 11 10 10 11 10 10 10 11 10
5 3 2 5 3 11 2 6 4 10 2 3 4 6 8 7 4 12 12 12 13 13 10 8 5 3 4 2 7 8 9 10 11 11 11 11 11 11 10 10 11 11 10 11
9 7 4 5 7 6 2 4 4 4 3 1 3 7 9 10 10 11 14 12 10 12 8 8 6 5 3 3 6 10 10 11 11 12 11 12 12 12 12 12 12 10 8 7
7 3 5 3 4 4 4 4 4 2 6 3 4 6 9 10 5 6 13 13 11 10 8 7 8 7 5 5 5 8 10 10 12 12 11 10 11 12 11 11 11 8 7 7
1 2 6 6 5 2 3 8 1 6 4 1 1 3 5 6 4 7 9 10 10 9 11 8 8 8 6 5 6 6 7 9 10 9 9 11 12 11 10 10 7 7 7 7
3 3 3 2 4 5 6 1 4 4 2 3 3 2 4 5 5 5 7 9 10 12 12 10 9 8 5 5 5 7 6 4 6 9 9 9 10 9 8 9 8 8 10 11
4 3 2 4 3 3 3 3 1 1 3 3 5 4 4 7 7 8 8 10 10 10 9 10 9 10 8 7 5 8 7 5 4 8 10 10 8 6 7 9 8 6 6 7
3 3 4 4 2 4 4 3 3 1 7 7 7 8 8 9 10 12 10 10 10 10 10 9 9 10 11 8 8 9 7 7 7 10 10 9 12 12 9 8 8 6 5 2
2 3 4 8 9 9 11 9 9 11 11 10 10 9 10 10 12 14 15 14 12 11 11 10 9 10 12 11 10 9 7 7 7 9 9 9 9 12 13 9 9 8 9 8
6 11 8 8 8 10 9 8 10 12 12 12 12 13 13 13 16 17 16 15 13 13 12 12 12 13 14 13 13 10 8 7 7 9 9 11 11 11 10 10 10 10 16 8
Wind_Direction
63 219 231 265 231 284 281 279 287 287 298 271 257 264 271 203 203 215 218 209 210 217 220 218 216 214 209 208 199 196 192 197 186 184 192 198 203 206 217 214 222 210 192 205
196 242 258 199 226 238 253 296 301 287 306 213 323 291 283 216 211 210 214 214 218 224 222 218 213 210 208 202 201 193 195 187 194 201 189 191 198 203 219 212 216 219 206 206
217 175 113 196 257 254 263 257 289 281 326 74 316 286 354 38 241 228 230 226 225 226 222 220 213 208 206 203 197 192 191 189 186 183 176 168 171 168 201 221 218 212 212 215
249 225 233 250 254 242 277 214 276 297 308 325 345 317 1 344 263 221 222 223 224 225 225 225 217 202 199 202 198 189 189 186 181 176 189 196 196 200 208 211 213 206 203 192
160 203 199 239 259 181 287 301 324 333 304 298 22 280 325 343 11 352 235 229 218 215 209 209 209 205 197 183 183 182 182 184 183 189 197 191 204 205 197 204 210 212 184 189
262 177 237 241 177 208 147 263 187 138 296 266 75 317 301 9 321 310 316 290 226 212 216 208 204 191 193 180 183 171 176 180 185 196 196 197 198 201 203 195 201 188 183 191
297 223 225 219 248 163 202 238 281 276 243 309 150 258 280 282 352 296 311 308 229 202 199 190 183 188 183 189 186 177 180 181 190 199 196 199 202 198 202 206 195 191 185 199
309 161 186 169 243 295 201 264 245 260 287 332 167 312 355 198 356 346 335 343 156 189 203 192 189 181 175 181 188 190 191 186 187 197 203 194 200 202 210 214 211 206 215 225
202 256 254 247 226 233 135 205 355 172 160 263 1 288 250 262 358 351 2 8 293 184 187 191 184 173 172 189 185 189 192 195 190 195 199 196 192 203 207 213 213 222 230 240
199 275 212 133 155 88 252 126 178 194 243 284 315 290 299 347 338 346 354 357 343 298 186 181 186 183 187 195 192 184 179 192 194 196 196 198 192 197 199 201 211 215 220 219
194 231 211 252 194 207 149 200 86 106 305 249 292 314 199 294 306 319 338 347 346 352 195 187 185 181 197 197 192 185 175 196 192 201 193 197 198 198 199 200 207 214 219 221
216 237 262 286 57 262 266 221 201 233 174 20 325 272 203 270 306 300 316 341 358 7 299 183 178 179 193 199 193 191 198 195 194 197 198 199 197 195 203 207 207 201 210 213
162 229 266 247 175 175 244 173 128 118 149 178 238 283 163 267 280 358 338 340 349 31 42 217 184 182 195 204 205 199 196 203 204 195 196 195 200 196 207 211 212 203 205 211
186 242 265 268 322 345 238 193 187 247 213 172 228 272 297 11 10 17 9 347 326 341 54 215 231 210 190 199 209 213 217 205 200 197 202 203 200 204 205 204 207 208 206 209
322 269 241 268 272 257 267 266 196 215 206 238 316 241 292 13 19 31 13 6 11 357 346 310 231 225 233 199 199 207 215 209 196 199 202 206 204 210 208 202 204 204 204 209
359 267 241 277 227 278 280 273 258 246 211 246 242 270 260 65 55 38 27 17 19 6 355 347 352 228 214 240 235 204 205 200 201 201 214 206 196 201 203 206 202 203 205 208
280 268 226 255 287 297 268 254 236 234 240 238 207 245 347 31 46 44 34 27 14 356 352 351 353 26 195 208 209 223 218 203 196 209 204 200 199 199 203 204 201 202 204 204
228 212 279 287 284 251 60 45 279 249 207 256 301 20 355 17 111 65 42 19 9 3 350 352 355 11 14 191 189 188 195 204 201 205 208 192 191 198 202 201 204 205 204 205
228 208 221 250 235 308 162 13 1 349 143 80 9 20 358 358 158 68 19 13 9 3 346 343 344 314 228 205 186 175 186 198 202 207 209 199 192 198 195 201 207 207 205 207
119 219 236 183 245 265 56 359 340 300 246 73 73 26 4 1 201 31 352 350 358 3 354 333 330 312 273 265 257 187 183 195 212 210 203 208 203 199 204 212 200 197 206 200
143 143 224 222 253 276 21 330 140 218 46 31 2 15 13 29 14 323 326 344 359 342 342 340 324 305 320 311 269 256 179 206 220 213 201 199 207 208 201 193 204 188 174 163
263 254 201 184 235 239 16 216 285 34 33 338 338 349 336 335 334 340 336 342 345 345 337 332 318 305 291 300 298 278 261 186 205 203 193 204 205 202 196 191 184 180 166 154
236 286 329 254 344 354 301 302 141 191 344 345 312 319 322 317 323 326 326 329 332 330 324 317 303 302 298 294 270 276 275 289 239 194 197 187 182 182 178 172 161 164 164 157
198 188 253 277 154 260 250 223 236 252 321 304 291 297 304 305 313 310 306 308 311 318 310 309 297 290 298 296 281 268 276 255 218 179 169 155 134 118 97 89 81 75 20 323
329 189 262 265 283 281 258 248 270 296 304 287 286 275 281 292 300 306 304 302 297 298 298 290 273 265 272 286 282 282 286 266 230 180 159 135 136 118 118 115 123 121 79 353
221 252 259 277 299 279 278 298 301 302 290 284 292 284 278 288 298 298 294 295 294 291 287 280 266 255 258 266 275 277 267 256 239 222 191 174 155 149 133 138 139 119 88 64